Regional Weather Roundup
Issued by NWS

Home | Current Version | Previous Version | Text Only | Print | Product List | Glossary On
Versions: 1 2 3 4 5 6 7 8 9 10 11 12 13 14 15 16 17 18 19 20 21 22 23 24 25 26 27
000
ASUS45 KSLC 231910
RWRUT

UTAH REGIONAL WEATHER ROUNDUP
NATIONAL WEATHER SERVICE SALT LAKE CITY UT
100 PM MDT MON APR 23 2018

UTZ001>011-023>025-232000-

NORTHERN UTAH

CITY           SKY/WX    TMP DP  RH WIND       PRES   REMARKS
BRIGHAM CITY   MOSUNNY   59  28  30 W3        30.17F
DUGWAY         PTSUNNY   65  28  24 N6        30.15F
HILL AFB       NOT AVBL
LOGAN          SUNNY     60  30  32 W7        30.16F
OGDEN          SUNNY     59  32  36 VRB3      30.16S
SALT LAKE CITY MOSUNNY   64  32  30 NW10G17   30.15F
TOOELE VALLEY  SUNNY     61  36  39 E6        30.17F
WENDOVER       MOSUNNY   64  22  20 SE12      30.16F
HEBER CITY       N/A     63  28  27 S12G23    30.12F
WEST JORDAN    SUNNY     60  36  40 N20       30.15F

$$

UTZ011>015-024>027-232000-

CENTRAL/NORTHEAST UTAH

CITY           SKY/WX    TMP DP  RH WIND       PRES   REMARKS
PROVO AIRPORT  MOSUNNY   64  41  42 NW10      30.14F
MOAB/CANYONLAN SUNNY     77  20  12 SW15G21   30.01F
DELTA          SUNNY     64  32  29 N12       30.14F
PRICE          SUNNY     70  26  19 NW13G29   30.10S
RICHFIELD      SUNNY     70  32  24 N7        30.11F
ROOSEVELT      SUNNY     72  23  16 W25G35    30.07F
VERNAL         MOSUNNY   73  26  17 W24G35    30.03F

$$

UTZ013>016-019>022-027-232000-

SOUTHERN UTAH

CITY           SKY/WX    TMP DP  RH WIND       PRES   REMARKS
BRYCE CANYON   SUNNY     66  17  15 NW10G23   30.22F
CEDAR CITY     SUNNY     72  25  17 W7        30.13F
MILFORD        SUNNY     69  37  30 N10       30.13F
ST GEORGE      CLEAR     81  23  11 CALM      30.01F
HANKSVILLE     SUNNY     79  21  11 NW7       30.03F
KANAB          SUNNY     79  16   9 SW14G20   30.13F
BLANDING         N/A     72  20  14 S9G17     30.20F

$$

REGIONAL REPORTS     COLORADO/ARIZONA

CITY           SKY/WX    TMP DP  RH WIND       PRES   REMARKS
CRAIG, CO      SUNNY     66  35  31 W10G25    30.09F
GRAND JUNCTION SUNNY     75  32  20 VRB5      30.03F
RIFLE, CO      HAZE      72  30  21 W18G30    30.05F VSB 3/4
MONTROSE, CO   SUNNY     75  13   9 SW18G28   30.08F
CORTEZ, CO     SUNNY     74  19  12 W10G23    30.14F
COLORADO CITY    N/A     79  21  11 W13G21    30.13F
PAGE, AZ       SUNNY     78  20  11 CALM      30.05F
GRAND CANYON   SUNNY     72  17  12 W9        30.21F
KINGMAN, AZ    SUNNY     85  23  10 SW18      30.06F
FLAGSTAFF, AZ  SUNNY     67  21  17 S9G25     30.23F

$$

REGIONAL REPORTS    NEVADA/IDAHO/WYOMING

CITY           SKY/WX    TMP DP  RH WIND       PRES   REMARKS
LAS VEGAS, NV  MOSUNNY   86  24  10 CALM      29.97F
ELY, NY        PTSUNNY   61  22  22 CALM      30.19F
ELKO, NV       MOSUNNY   59  22  24 SW12      30.21S
POCATELLO, ID  PTSUNNY   51  37  58 N15       30.23R
BURLEY, ID     SUNNY     54  25  32 W12G26    30.20S
FORT BRIDGER,  MOCLDY    55  24  30 W24       30.19F
EVANSTON, WY   MOSUNNY   53  26  35 W15G31    30.17F
ROCK SPRINGS,  MOSUNNY   57  24  28 W20G36    30.13F
KEMMERER, WY   SUNNY     50  25  37 W21G28    30.17S

$$




USA.gov is the U.S. government's official web portal to all federal, state and local government web resources and services.